Find Starlink 11666

NORAD ID: 63667 Int'l Des: 2025-085 Owner: SPXS Country: US Constellation: starlink operational
又名: STARLINK-11666 [DTC] celestrak
LEOCIRCULAR

当前视图

正在加载3D地球...

About Starlink 11666

Starlink 11666 (NORAD 63667) is a starlink constellation satellite (v2 mini d2c) launched Apr 28, 2025 by SPXS of US. It operates in LEO, CIRCULAR orbit with a mass of 960.00 kg.

即将过境

Passes for default location (London). Set your location on the main map for personalized predictions.

高度历史

Loading altitude history...

两行轨道根数

1 63667U 25085D 26263.16643282 .00125764 00000-0 96443-3 0 9993
2 63667 42.9995 186.5642 0004136 248.6020 111.4407 15.70941088 80735
Epoch: Sep 20, 2026 • Age: 14 hours

当前状态

高度 363.4 km
远地点 / 近地点 N/A
速度 7.69 km/s
星下点 -33.11°S, 123.04°W
发射日期 Apr 28, 2025
运行时间 1.3 years
类型 internet

技术详情

分类 Payload
质量 960.00 kg
干质量 910.00 kg
长度 0.30 m
跨度 29.00 m
形状 ? Box + pan
制造商 SPXS
平台类型 Starlink V2MD
阶段状态 In Orbit
所有者/国家 SPXS/US

Most Searched